Simultaneous Nadir Overpasses (SNOs) Predictions

Prediction of SNOs between GOES-16 and NOAA-20 Satellite Orbit:

Table of predicted SNOs for the next 14.0 days since TLE Epoch: 5/16/2025
Index Date Time (GOES-16) GOES-16 Lat,Lon NOAA-20 Lat,Lon Distance(km) Time Diff (sec)
1 05/17/2025 07:59:37 -0.02, -94.11 0.96, -98.49 499.23 80
2 05/18/2025 07:38:14 -0.02, -94.62 -0.14, -93.98 72.72 80
3 05/19/2025 20:02:55 0.01, -95.44 -0.87, -99.33 443.42 80
4 05/20/2025 19:41:33 0.01, -95.96 0.29, -94.83 129.07 80
5 05/22/2025 08:06:05 -0.01, -96.74 0.74,-100.14 386.83 80
6 05/23/2025 07:44:42 -0.01, -97.26 -0.36, -95.63 185.45 80
7 05/24/2025 20:09:22 0.01, -98.07 -0.63,-100.97 330.61 80
8 05/25/2025 19:48:00 0.01, -98.59 0.47, -96.46 241.83 80
9 05/27/2025 08:12:32 -0.01, -99.37 0.50,-101.78 274.27 80
10 05/28/2025 07:51:10 -0.01, -99.88 -0.61, -97.27 297.83 80
11 05/29/2025 20:15:49 0.01,-100.69 -0.43,-102.61 218.57 80
